Regional Weather Roundup
Issued by NWS

Home | Current Version | Previous Version | Graphics & Text | Print | Product List | Glossary On
Versions: 1 2 3 4 5 6 7 8 9 10 11 12 13 14 15 16 17 18 19 20 21 22 23 24 25 26 27 28 29 30 31 32 33 34 35 36 37 38 39 40 41 42 43 44 45 46 47 48 49 50
000
ASUS43 KBIS 300310
RWRND

NORTH DAKOTA REGIONAL WEATHER ROUNDUP
NATIONAL WEATHER SERVICE BISMARCK ND
1000 PM CDT THU SEP 29 2016

NOTE: "FAIR" INDICATES FEW OR NO CLOUDS BELOW 12,000 FEET WITH NO
SIGNIFICANT WEATHER AND/OR OBSTRUCTIONS TO VISIBILITY.


NDZ001>003-009>011-017-300400-
NORTHWEST NORTH DAKOTA

CITY           SKY/WX    TMP DP  RH WIND       PRES   REMARKS
WILLISTON      CLEAR     62  44  51 E7        30.13S
MINOT          CLEAR     56  47  71 SE10      30.23R
MINOT AFB      CLEAR     55  47  74 SE10      30.22R
$$

NDZ018>021-031>035-040>046-300400-
SOUTHWEST NORTH DAKOTA

CITY           SKY/WX    TMP DP  RH WIND       PRES   REMARKS
BISMARCK       CLEAR     52  45  77 SE9       30.26S
DICKINSON      CLEAR     58  41  53 SE16      30.15S
GARRISON         N/A     55  47  74 SE10      30.22S
HETTINGER ARPT PTCLDY    61  42  49 SE15G23   30.19S
$$

NDZ004>008-012>016-024-026-027-054-300400-
NORTHEAST NORTH DAKOTA

CITY           SKY/WX    TMP DP  RH WIND       PRES   REMARKS
GRAND FORKS    CLEAR     53  45  74 SE9       30.36S
GRND FRKS AFB  CLEAR     52  45  77 S7        30.36S
DEVILS LAKE    CLEAR     57  47  69 SE13      30.33S
$$

NDZ022-023-025-028>030-036>039-047>053-300400-
SOUTHEAST NORTH DAKOTA

CITY           SKY/WX    TMP DP  RH WIND       PRES   REMARKS
FARGO          CLEAR     54  45  71 E8        30.38R
JAMESTOWN      CLEAR     52  45  77 SE10      30.32F
$$





USA.gov is the U.S. government's official web portal to all federal, state and local government web resources and services.